Location: Joplin
(37.0842°N, 94.5131°W)
Time: 22:52:51
(UTC-06:00)

Envisat - Pass Details

Date: 27 October 2018
Orbit: 764 x 766 km, 98.2° (Epoch: 16 November)

Event Time Altitude Azimuth Distance (km) Brightness Sun altitude
Rises 18:55:27 0° 119° (ESE) 3,223 5.8 -6.6°
Reaches altitude 10° 18:58:44 10° 97° (E) 2,301 4.9 -7.2°
Maximum altitude 19:01:29 15° 64° (ENE) 1,987 4.5 -7.7°
Drops below altitude 10° 19:04:13 10° 31° (NNE) 2,308 5.1 -8.3°
Sets 19:07:30 0° 8° (N) 3,238 6.1 -8.9°
